Location: Bratsk-Energetik
(56.3300°N, 101.7600°E)
Time: 03:49:15
(UTC+08:00)

ISS - Pass Details

Date: 18 July 2018
Orbit: 402 x 408 km, 51.6° (Epoch: 17 July)

Event Time Altitude Azimuth Distance (km) Brightness Sun altitude
Exits shadow 23:48:18 15° 142° (SE) 1,179 -2.1 -10.4°
Drops below altitude 10° 23:49:59 10° 111° (ESE) 1,467 -1.4 -10.5°
Sets 23:52:38 0° 89° (E) 2,332 -0.2 -10.6°
